TimeCEST,TemperatureF,Dew PointF,Humidity,Sea Level PressureIn,VisibilityMPH,Wind Direction,Wind SpeedMPH,Gust SpeedMPH,PrecipitationIn,Events,Conditions,WindDirDegrees,DateUTC
12:00 AM,62.6,46.4,55,30.21,-9999.0,NE,9.2,-,N/A,,Clear,40,2013-06-26 22:00:00
12:30 AM,62.6,48.2,59,30.21,-9999.0,ENE,6.9,-,N/A,,Clear,70,2013-06-26 22:30:00
1:00 AM,60.8,48.2,63,30.21,-9999.0,ENE,6.9,-,N/A,,Clear,70,2013-06-26 23:00:00
1:30 AM,59.0,48.2,67,30.21,-9999.0,Variable,1.2,-,N/A,,Clear,0,2013-06-26 23:30:00
2:00 AM,56,48,66,,12,NE,1.2,,,,,50,2013-06-27 00:00:00
2:00 AM,57.2,48.2,72,30.24,-9999.0,Variable,1.2,-,N/A,,Clear,0,2013-06-27 00:00:00
2:30 AM,55.4,50.0,82,30.21,-9999.0,NE,3.5,-,N/A,,Clear,40,2013-06-27 00:30:00
3:00 AM,53.6,48.2,82,30.21,-9999.0,Variable,2.3,-,N/A,,Clear,0,2013-06-27 01:00:00
3:30 AM,53.6,48.2,82,30.21,-9999.0,Variable,2.3,-,N/A,,Clear,0,2013-06-27 01:30:00
4:00 AM,51.8,48.2,88,30.21,-9999.0,NE,6.9,-,N/A,,Clear,40,2013-06-27 02:00:00
4:30 AM,51.8,48.2,88,30.21,-9999.0,NNE,9.2,-,N/A,,Clear,30,2013-06-27 02:30:00
5:00 AM,51.8,46.4,82,30.21,-9999.0,NE,5.8,-,N/A,,Clear,50,2013-06-27 03:00:00
5:30 AM,50.0,46.4,87,30.21,-9999.0,NE,6.9,-,N/A,,Clear,50,2013-06-27 03:30:00
6:00 AM,50.0,46.4,87,30.21,-9999.0,NE,6.9,-,N/A,,Clear,50,2013-06-27 04:00:00
6:30 AM,50.0,46.4,87,30.21,-9999.0,NE,9.2,-,N/A,,Clear,40,2013-06-27 04:30:00
7:00 AM,48.2,44.6,87,30.24,-9999.0,NE,6.9,-,N/A,,Clear,40,2013-06-27 05:00:00
7:30 AM,50.0,46.4,87,30.24,-9999.0,NNE,8.1,-,N/A,,Clear,30,2013-06-27 05:30:00
8:00 AM,52,46,74,,9,NE,6.9,,,,Clear,40,2013-06-27 06:00:00
8:00 AM,50.0,46.4,87,30.24,-9999.0,NE,5.8,-,N/A,,Clear,40,2013-06-27 06:00:00
8:30 AM,53.6,46.4,77,30.24,-9999.0,ENE,5.8,-,N/A,,Clear,70,2013-06-27 06:30:00
9:00 AM,53.6,46.4,77,30.24,-9999.0,East,9.2,-,N/A,,Clear,80,2013-06-27 07:00:00
9:30 AM,57.2,48.2,72,30.24,-9999.0,East,9.2,-,N/A,,Clear,90,2013-06-27 07:30:00
10:00 AM,59.0,48.2,67,30.24,-9999.0,East,5.8,-,N/A,,Clear,100,2013-06-27 08:00:00
10:30 AM,62.6,48.2,59,30.24,-9999.0,East,6.9,-,N/A,,Clear,80,2013-06-27 08:30:00
11:00 AM,64.4,48.2,56,30.24,-9999.0,ENE,8.1,-,N/A,,Clear,70,2013-06-27 09:00:00
11:30 AM,66.2,48.2,52,30.24,-9999.0,NE,9.2,-,N/A,,Clear,40,2013-06-27 09:30:00
12:00 PM,69.8,50.0,49,30.24,-9999.0,ENE,9.2,-,N/A,,Clear,60,2013-06-27 10:00:00
12:30 PM,71.6,50.0,46,30.21,-9999.0,ENE,9.2,-,N/A,,Clear,60,2013-06-27 10:30:00
1:00 PM,73.4,50.0,44,30.21,-9999.0,ENE,9.2,-,N/A,,Clear,60,2013-06-27 11:00:00
1:30 PM,77.0,51.8,41,30.21,-9999.0,NE,10.4,-,N/A,,Clear,50,2013-06-27 11:30:00
2:00 PM,79,49,25,,12,ENE,9.2,,,,,60,2013-06-27 12:00:00
2:00 PM,77.0,50.0,39,30.21,-9999.0,East,10.4,-,N/A,,Clear,80,2013-06-27 12:00:00
2:30 PM,78.8,48.2,34,30.21,6.2,ENE,8.1,-,N/A,,Partly Cloudy,60,2013-06-27 12:30:00
3:00 PM,78.8,48.2,34,30.21,6.2,East,8.1,-,N/A,,Partly Cloudy,80,2013-06-27 13:00:00
3:30 PM,80.6,48.2,32,30.21,6.2,NE,10.4,-,N/A,,Partly Cloudy,50,2013-06-27 13:30:00
4:00 PM,82.4,48.2,30,30.21,6.2,NNE,6.9,-,N/A,,Partly Cloudy,30,2013-06-27 14:00:00
4:30 PM,82.4,46.4,28,30.21,6.2,ESE,5.8,-,N/A,,Partly Cloudy,110,2013-06-27 14:30:00
5:00 PM,82.4,48.2,30,30.21,6.2,NE,10.4,-,N/A,,Partly Cloudy,50,2013-06-27 15:00:00
5:30 PM,82.4,46.4,28,30.21,6.2,NE,11.5,-,N/A,,Partly Cloudy,40,2013-06-27 15:30:00
6:00 PM,82.4,48.2,30,30.18,6.2,ENE,9.2,-,N/A,,Partly Cloudy,60,2013-06-27 16:00:00
6:30 PM,82.4,44.6,26,30.18,-9999.0,NE,10.4,-,N/A,,Clear,40,2013-06-27 16:30:00
7:00 PM,80.6,42.8,26,30.18,-9999.0,NE,8.1,-,N/A,,Clear,40,2013-06-27 17:00:00
7:30 PM,80.6,41.0,24,30.18,-9999.0,NE,11.5,-,N/A,,Clear,50,2013-06-27 17:30:00
8:00 PM,81,41,15,,12,NE,10.4,,,,Clear,40,2013-06-27 18:00:00
8:00 PM,80.6,42.8,26,30.18,-9999.0,NE,10.4,-,N/A,,Clear,50,2013-06-27 18:00:00
8:30 PM,78.8,39.2,24,30.18,-9999.0,NE,12.7,-,N/A,,Clear,50,2013-06-27 18:30:00
9:00 PM,75.2,41.0,29,30.21,-9999.0,ENE,13.8,-,N/A,,Clear,60,2013-06-27 19:00:00
9:30 PM,71.6,41.0,33,30.21,-9999.0,NE,9.2,-,N/A,,Clear,50,2013-06-27 19:30:00
10:00 PM,68.0,41.0,37,30.21,-9999.0,ENE,8.1,-,N/A,,Clear,60,2013-06-27 20:00:00
10:30 PM,66.2,41.0,40,30.24,-9999.0,ENE,9.2,-,N/A,,Clear,60,2013-06-27 20:30:00
11:00 PM,64.4,41.0,42,30.24,-9999.0,ENE,10.4,-,N/A,,Clear,60,2013-06-27 21:00:00
11:30 PM,62.6,41.0,45,30.27,-9999.0,ENE,8.1,-,N/A,,Clear,70,2013-06-27 21:30:00